Regional Weather Roundup
Issued by NWS State College, PA

Home | Current Version | Previous Version | Text Only | Print | Product List | Glossary On
Versions: 1 2 3 4 5 6 7 8 9 10 11 12 13 14 15 16 17 18 19 20 21 22 23 24 25 26 27 28 29 30 31 32 33 34 35 36 37 38 39 40 41 42 43 44 45 46 47 48 49 50
000
ASUS41 KCTP 061410
RWRCTP

REGIONAL WEATHER ROUNDUP
NATIONAL WEATHER SERVICE STATE COLLEGE PA
900 AM EST FRI MAR 06 2015

Note: "fair" indicates few or no clouds below 12,000 feet with no
significant weather and/or obstructions to visibility.

* = STATION THAT DOES NOT REPORT PRECIPITATION /E.G. RAIN...SNOW...ETC/
    THUNDER OR FOG.

PAZ002>004-007>009-013>016-020>023-029>032-061500-
WESTERN PENNSYLVANIA

CITY           SKY/WX    TMP DP  RH WIND       PRES   REMARKS
ERIE           MOSUNNY    8  -1  66 S9        30.51S WCI  -5
MEADVILLE      SUNNY      5  -1  76 S7        30.45S WCI  -7
FRANKLIN*      SUNNY      5   0  78 SW7       30.47R WCI  -7
NEW CASTLE     FAIR       7   1  76 CALM      30.52F
BEAVER COUNTY  SUNNY      9   1  72 S3        30.50S
BUTLER*        SUNNY      5   1  85 CALM      30.52S
PITTSBURGH INT SUNNY      5   1  83 CALM      30.51R
PITTSBURGH     SUNNY      8   0  69 S8        30.51R WCI  -4
INDIANA*       SUNNY      3   1  92 CALM      30.54S
LATROBE        SUNNY      3   1  92 CALM      30.55R
WASHINGTON CO* SUNNY      3   3 100 CALM      30.52S
$$

PAZ004>006-010>012-017>019-024>028-033>037-041-042-045-046-049>053-061500-
CENTRAL PENNSYLVANIA

CITY           SKY/WX    TMP DP  RH WIND       PRES   REMARKS
BRADFORD       SUNNY      3  -3  76 W6        30.38R WCI  -8
DUBOIS         SUNNY      2   0  91 W3        30.43R
CLEARFIELD     MOSUNNY    1  -3  83 S6        30.49R WCI -10
JOHNSTOWN      SUNNY      5  -3  69 CALM      30.38R
ALTOONA        SUNNY      8  -2  63 CALM      30.50R
STATE COLLEGE  SUNNY      7  -2  66 CALM      30.51S
WILLIAMSPORT   SUNNY      7  -3  64 W10       30.58R WCI  -8
SELINSGROVE    SUNNY     11  -2  56 NW7       30.58R WCI   0
FT INDIANTOWN  SUNNY     12  -2  53 N5        30.57R WCI   4
CAPITAL CITY   SUNNY     12  -2  53 NW6       30.60R WCI   3
HARRISBURG     SUNNY     11  -1  58 NW6       30.60R WCI   1
YORK           SUNNY      9  -2  61 NW6       30.58R WCI  -1
$$

PAZ038>040-043-044-047-048-054-055-060>062-067>071-061500-
EASTERN PENNSYLVANIA

CITY           SKY/WX    TMP DP  RH WIND       PRES   REMARKS
SCRANTON       SUNNY     10  -2  58 N6        30.50S WCI   0
MOUNT POCONO   SUNNY      8  -2  63 NW8       30.37R WCI  -4
ALLENTOWN      SUNNY     11  -1  58 NW7       30.56R WCI   0
QUAKERTOWN*    SUNNY     12   1  62 N7        30.54F WCI   2
READING        SUNNY     12   0  58 W5        30.58R WCI   4
LANCASTER      SUNNY      7   0  73 NW7       30.58R WCI  -5
COATESVILLE    SUNNY     12   1  62 N10       30.54R WCI  -1
POTTSTOWN      SUNNY     13   1  59 NW13      30.57S WCI  -2
BLUE BELL      SUNNY     16   5  62 CALM      30.55S
DOYLESTOWN     SUNNY     12   3  67 N8        30.53R WCI   0
WILLOW GROVE   NOT AVBL
NORTH PHILA    SUNNY     16   5  62 N13       30.59R WCI   2
PHILADELPHIA   SUNNY     15   3  59 N9        30.60R WCI   3
$$



USA.gov is the U.S. government's official web portal to all federal, state and local government web resources and services.